Location: Hysolar-Haus
(48.7436°N, 9.0965°E)
Time: 08:42:59
(UTC+00:00)

Daily predictions for brighter satellites

Satellite Brightness Start Highest point End
(mag) Time Altitude Azimuth Time Altitude Azimuth Time Altitude Azimuth
SPOT 3 Rocket 4.0 19:19:28 10° SE 19:24:23 46° ENE 19:29:17 10° N
Cosmos 1486 Rocket 4.1 19:24:45 10° S 19:29:58 59° ESE 19:35:13 10° NNE
CZ-4C R/B 3.6 19:23:26 10° NW 19:29:58 46° NE 19:37:40 10° ESE
USA 307 4.1 19:26:29 10° WNW 19:30:33 41° N 19:34:38 10° ENE
ERS-2 3.3 19:28:51 10° N 19:32:22 48° WNW 19:35:52 10° SW
SL-4 R/B 3.4 19:30:18 10° WNW 19:34:15 34° SW 19:38:25 10° SSE
USA 215 4.4 19:30:04 10° ENE 19:36:13 45° N 19:42:21 10° WNW
Cosmos 1151 Rocket 4.2 19:33:57 10° SE 19:37:33 26° E 19:41:12 10° NNE
ATLAS 5 CENTAUR R/B 2.4 19:35:16 10° NW 19:40:44 75° NE 19:47:08 10° SE
CREW DRAGON DEMO-1 DEB 3.6 19:38:29 10° WNW 19:41:02 41° N 19:43:35 10° ENE
OBJECT-B 2.6 19:40:42 10° SSW 19:43:37 30° W 19:46:33 10° NNW
Cosmos 1844 3.7 19:38:09 10° SSW 19:43:48 65° ESE 19:49:25 10° NNE
USA 308 4.0 19:40:02 10° WNW 19:44:09 43° N 19:48:16 10° E
Cosmos 1833 Rocket 3.7 19:47:40 10° NNW 19:52:53 36° NE 19:57:45 11° ESE
Intercosmos 24 3.6 19:50:58 10° S 19:54:43 74° E 19:58:18 10° NNE
Cosmos 1242 Rocket 2.6 19:53:56 10° S 19:57:27 56° E 20:00:57 10° NNE
Cosmos 1805 Rocket 4.0 19:54:55 10° NNW 19:59:13 61° W 20:03:30 10° S
Spot 2 Rocket 4.0 19:56:46 13° SE 20:01:05 45° ENE 20:05:53 10° N
Meteor 1-26 Rocket 4.4 19:56:27 10° S 20:01:57 53° E 20:07:21 10° NNE
SPOT 5 4.0 20:01:56 13° ESE 20:05:49 34° ENE 20:10:32 10° N
Cosmos 1633 Rocket 3.1 20:02:36 10° N 20:06:59 63° ENE 20:10:43 14° SSE
BREEZE-M DEB (TANK) 4.2 19:51:51 10° WSW 20:07:46 86° SSE 20:11:32 10° ENE
CZ-2C R/B 3.8 20:03:28 10° NNE 20:07:53 54° ESE 20:12:20 10° S
ARIANE 5 R/B 3.1 20:06:12 15° SE 20:09:28 45° ENE 20:13:36 10° N
Terra 3.2 20:06:40 13° ESE 20:09:54 26° ENE 20:13:50 10° N
USA 290 3.0 20:09:00 10° NW 20:12:08 46° WSW 20:14:51 13° S
ERS-1 Rocket 3.7 20:10:41 16° SE 20:14:19 40° ENE 20:19:01 10° N
IGS 5A 3.8 20:11:22 10° S 20:15:28 65° WSW 20:19:37 10° NNW
Cosmos 1470 Rocket 4.0 20:12:48 10° N 20:17:10 48° ENE 20:20:10 19° SE
Cosmos 1328 Rocket 3.7 20:14:51 12° S 20:18:52 54° E 20:23:11 10° NNE
Cosmos 1437 3.1 20:17:58 24° SE 20:19:06 35° E 20:21:46 10° NNE
Cosmos 1709 Rocket 4.0 20:13:12 10° N 20:19:22 88° ENE 20:25:15 11° S
Cosmos 1933 3.7 20:15:52 10° SSW 20:19:54 67° WNW 20:23:55 10° N
Cosmos 1503 Rocket 4.0 20:15:47 10° SSW 20:20:58 89° ESE 20:26:13 10° NNE
Cosmos 1437 Rocket 4.5 20:19:16 10° SW 20:22:50 35° WNW 20:26:30 10° N
X-37B 1.5 20:20:14 10° W 20:23:08 32° SSW 20:24:16 25° SSE
Cosmos 1777 Rocket 4.4 20:20:39 11° S 20:25:14 42° ESE 20:30:06 10° NE
USA 305 3.5 20:21:41 10° WNW 20:25:53 55° NNE 20:29:31 13° E
CARTOSAT-1 3.7 20:23:35 20° SSE 20:26:29 60° ENE 20:30:45 10° N
Cosmos 1500 3.2 20:24:13 10° N 20:27:58 63° E 20:30:08 23° SSE
Cosmos 2082 Rocket 3.2 20:23:10 10° NNW 20:28:19 35° NE 20:32:17 16° ESE
COSMOS 2406 3.4 20:23:06 10° NNW 20:28:44 60° ENE 20:32:38 20° SE
Cosmos 1933 Rocket 4.1 20:27:26 10° N 20:31:37 43° ENE 20:33:54 23° SE
Cosmos 1666 Rocket 4.0 20:29:09 10° NNW 20:33:30 59° W 20:37:21 13° S
Cosmos 2315 Rocket 4.1 20:33:07 10° S 20:39:29 87° W 20:45:56 10° N
SWARM C 4.5 20:36:53 10° N 20:40:13 69° E 20:41:40 30° SSE
SWARM A 4.1 20:37:00 10° N 20:40:20 72° E 20:41:49 30° SSE
Cosmos 1782 3.0 20:36:30 10° SSW 20:40:30 72° WNW 20:44:29 10° N
USA 245 2.8 20:42:52 33° SSW 20:43:30 43° WSW 20:45:40 10° NNW
USA 306 3.2 20:40:52 10° WNW 20:45:07 64° NNE 20:47:59 20° E
Cosmos 1271 Rocket 3.6 20:46:42 28° SE 20:47:46 33° E 20:51:24 10° NNE
SPOT 1/Viking Rocket 4.0 20:45:30 15° S 20:49:47 57° W 20:54:55 10° NNW
SJ 16-02 1.9 20:52:11 29° SE 20:53:39 39° ESE 20:57:48 10° NE
Cosmos 2278 Rocket 2.3 20:50:05 16° S 20:54:30 53° ESE 21:00:00 10° NE
Meteor 1-11 Rocket 4.2 20:48:42 10° N 20:54:33 51° ENE 20:57:46 26° SE
Resurs 01 Rocket 3.6 20:54:12 10° SSW 20:57:47 24° W 21:01:23 10° NW
NOSS 3-4 (A) 4.0 20:51:27 10° NW 20:58:17 68° NE 21:03:32 22° ESE
NOSS 3-4 (C) 4.0 20:51:34 10° NW 20:58:23 67° NE 21:03:39 21° ESE
Cosmos 2228 Rocket 3.7 21:01:58 32° SE 21:03:13 39° E 21:07:22 10° NNE
H-2A R/B 3.8 20:59:18 10° NNE 21:03:23 48° E 21:04:39 35° SSE
Cosmos 1340 Rocket 4.2 21:03:20 10° N 21:06:47 25° ENE 21:07:52 23° E
NOSS 3-3 (A) 3.9 21:02:24 10° SW 21:08:13 86° NW 21:14:57 10° NE
NOSS 3-3 (C) 3.9 21:02:30 10° SW 21:08:19 87° NW 21:15:03 10° NE
USA 307 2.9 21:06:38 10° WNW 21:10:56 81° NNE 21:12:48 33° ESE
Cosmos 1943 Rocket 3.9 21:11:10 15° E 21:11:10 15° E 21:14:04 10° ENE
ATLAS 2AS CENTAUR R/B 3.3 21:04:28 10° NW 21:11:51 54° NE 21:16:52 19° ESE
CREW DRAGON DEMO-1 DEB 2.7 21:12:54 10° WNW 21:15:13 64° WNW 21:15:13 64° WNW
BREEZE-M R/B 1.8 21:16:01 10° W 21:18:25 77° N 21:18:26 77° N
Cosmos 1536 3.2 21:14:30 10° N 21:18:28 48° ENE 21:19:22 40° ESE
USA 215 4.1 21:12:20 10° E 21:18:33 48° NNE 21:24:47 10° WNW
CZ-4C R/B 3.1 21:11:52 10° NW 21:19:01 65° SW 21:23:48 27° SSE
Cosmos 1812 3.2 21:16:50 23° SSW 21:19:02 57° WNW 21:22:51 10° N
Meteor 1-10 Rocket 4.1 21:17:12 25° S 21:20:31 81° E 21:26:12 10° NNE
Iridium 4 Rocket 3.8 21:18:17 23° S 21:21:58 81° W 21:27:56 10° N
USA 308 2.8 21:20:08 10° WNW 21:24:27 87° SSW 21:25:49 43° ESE
ATLAS 5 CENTAUR R/B 3.8 21:20:23 10° WNW 21:25:09 27° WSW 21:28:41 17° SSW
Cosmos 1538 Rocket 4.3 21:21:07 10° NNW 21:26:25 61° WSW 21:28:51 31° S
Cosmos 2084 3.9 21:26:04 10° SW 21:30:10 60° NW 21:34:26 10° NE
Cosmos 158 Rocket 3.8 21:26:00 10° NNW 21:30:55 85° WSW 21:32:38 41° SSE
SL-24 DEB 4.1 21:30:18 41° S 21:31:55 89° E 21:36:33 10° N
Cosmos 1666 3.5 21:30:17 10° NNW 21:33:50 42° W 21:34:56 32° SW
Cosmos 1833 Rocket 3.3 21:31:34 10° NW 21:36:58 46° WSW 21:39:27 28° SSW
Cosmos 1869 Rocket 3.4 21:35:51 10° N 21:40:12 86° W 21:41:16 51° S
Cosmos 1743 3.1 21:38:40 10° N 21:42:24 47° ENE 21:42:43 45° E
SPOT 5 4.0 21:41:09 23° SSW 21:43:48 39° W 21:48:42 10° NNW
Cosmos 1680 Rocket 3.6 21:38:37 10° NNW 21:43:57 71° ENE 21:45:47 41° SE
Cosmos 1937 Rocket 4.3 21:45:55 30° ESE 21:46:12 31° E 21:50:42 10° NE
ERBS 4.4 21:43:28 10° NW 21:46:17 25° NNE 21:48:11 16° ENE
Terra 2.5 21:45:33 30° SSW 21:47:26 46° W 21:52:02 10° NNW
SL-8 Rocket 4.5 21:43:10 10° N 21:49:18 49° ENE 21:51:47 33° SE
Cosmos 2297 4.2 21:50:19 37° SE 21:51:09 39° ESE 21:56:24 10° NE
ERS-1 Rocket 4.3 21:50:41 20° SW 21:53:13 31° W 21:57:41 10° NNW
Cosmos 1818 4.3 21:48:09 10° NNW 21:53:28 47° NE 21:56:16 26° ESE
Cosmos 2154 Rocket 4.2 21:50:59 10° NNW 21:57:17 68° W 22:00:11 33° SSW
Cosmos 1707 Rocket 3.5 21:59:37 59° SE 22:00:06 64° E 22:04:29 10° NNE
ALOS 2 3.7 21:59:30 30° E 22:00:26 33° ENE 22:04:23 10° N
Spot 4 4.1 22:01:02 46° SE 22:02:14 61° ENE 22:07:03 10° N
USA 305 3.3 22:01:43 10° WNW 22:05:35 46° SW 22:05:35 46° SW
Cosmos 2082 Rocket 2.7 22:07:11 10° NW 22:12:33 46° WSW 22:14:07 37° SSW
Cosmos 962 Rocket 4.4 22:08:44 10° N 22:14:53 82° W 22:17:03 43° S
Meteor 1-27 Rocket 4.1 22:12:02 29° SW 22:15:00 62° WNW 22:20:54 10° N
Cosmos 44 3.5 22:11:26 10° NW 22:16:55 85° NE 22:18:21 50° SE
Cosmos 1898 Rocket 3.4 22:20:55 51° S 22:22:16 82° ESE 22:27:38 10° NNE
USA 306 4.0 22:21:01 10° WNW 22:24:02 32° WSW 22:24:02 32° WSW
Cosmos 1544 4.2 22:25:56 10° NNW 22:29:08 34° W 22:29:08 34° W
Gbstr 26 Del rocket 4.0 22:23:00 10° WNW 22:30:25 85° NNE 22:34:28 23° ESE
Cosmos 1733 Rocket 2.9 22:27:41 10° NNW 22:32:01 74° W 22:32:19 70° SW
SJ 16-02 3.2 22:29:05 13° WSW 22:32:21 27° WNW 22:36:09 10° N
Meteor 1-19 Rocket 4.1 22:33:41 55° SSE 22:34:47 71° E 22:40:10 10° NNE
Cosmos 2181 Rocket 3.9 22:34:44 47° S 22:36:39 82° E 22:42:48 10° N
Cosmos 1238 Rocket 3.8 22:31:58 10° NNW 22:38:19 74° W 22:39:54 49° SSW
Cosmos 1515 3.9 22:38:29 66° WNW 22:38:29 66° WNW 22:42:08 10° N
Cosmos 2278 Rocket 3.8 22:33:49 10° WSW 22:38:51 32° NW 22:43:56 10° NNE
Okean 1 3.3 22:40:56 76° WNW 22:40:56 76° WNW 22:44:56 10° N
Cosmos 990 Rocket 4.4 22:40:06 34° SW 22:42:11 59° WNW 22:47:24 10° NNE
Cosmos 1340 Rocket 4.0 22:39:37 10° NNW 22:43:15 31° W 22:43:27 31° W
Cosmos 1908 Rocket 3.8 22:40:23 10° N 22:44:50 59° ENE 22:45:11 57° E
Cosmos 2366 rocket 3.9 22:41:36 10° N 22:47:47 82° W 22:49:36 49° S
Cosmos 2369 Rocket 2.6 22:48:04 43° ESE 22:48:33 44° ESE 22:53:53 10° NE
Cosmos 2341 Rocket 4.5 22:43:21 10° NNW 22:49:34 53° W 22:51:45 37° SW
Cosmos 372 Rocket 4.0 22:49:28 57° SE 22:49:53 59° ESE 22:54:55 10° NNE
SAR-Lupe-2 4.3 22:46:23 10° NNE 22:49:14 48° NE 22:49:14 48° NE
Cosmos 967 Rocket 4.3 22:49:56 42° SSW 22:52:15 86° SE 22:58:35 10° NE
Cosmos 1943 Rocket 2.1 22:52:39 54° SSW 22:54:01 85° ESE 22:59:40 10° NNE
Meteor 2-9 Rocket 4.3 22:49:27 10° NNW 22:55:14 67° W 22:56:34 51° SSW
SeaSat 1 3.4 22:50:54 10° NE 22:55:08 33° ESE 22:55:08 33° ESE
Cosmos 1461 3.5 22:58:11 50° E 22:58:11 50° E 23:02:15 10° NE
USA 215 3.2 22:57:12 25° ESE 23:01:15 88° NE 23:07:50 10° NW
ATLAS 2AS CENTAUR R/B 3.1 22:55:50 10° NW 23:02:45 46° WSW 23:04:17 40° SSW
RESURS DK-1 3.2 23:03:04 10° NNW 23:07:05 45° NE 23:07:43 41° E
Cosmos 2218 Rocket 4.3 23:01:05 10° NNW 23:07:13 59° W 23:09:04 43° SSW
Cosmos 1975 3.2 23:04:40 10° NNW 23:08:17 53° WNW 23:08:17 53° WNW
Meteor 2-4 Rocket 3.7 23:09:23 56° S 23:10:41 83° E 23:16:22 10° NNE
ISS -0.8 23:17:26 11° ENE 23:17:26 11° ENE 23:17:31 10° ENE
Cosmos 1862 Rocket 4.3 23:13:56 39° W 23:14:28 41° WNW 23:18:35 10° N
Cosmos 1703 Rocket 3.5 23:14:30 74° E 23:14:31 74° E 23:18:56 10° NNE
Cosmos 1782 Rocket 3.6 23:11:55 10° N 23:16:23 69° ENE 23:16:38 67° ESE
Cosmos 1656 Rocket 3.9 23:17:56 46° SE 23:18:27 47° ESE 23:23:44 10° NE
Cosmos 2084 Rocket 4.3 23:17:36 10° NW 23:20:45 38° W 23:20:45 38° W
ERBS 4.2 23:19:25 10° NW 23:20:56 25° NW 23:20:56 25° NW
Cosmos 1937 Rocket 4.4 23:26:02 29° WSW 23:28:01 42° WNW 23:32:56 10° NNE
Nadezhda 3 Rocket 4.0 23:28:06 50° S 23:29:50 77° E 23:36:05 10° NNE
CZ-2D R/B 4.4 23:28:00 10° ENE 23:30:17 13° E 23:32:26 10° ESE
Cosmos 1833 4.2 23:27:18 10° NNW 23:33:06 84° ENE 23:34:47 48° SE
ATLAS CENTAUR R/B 3.0 23:34:53 22° E 23:34:53 22° E 23:36:46 10° ENE
Thor Agena Rocket 3.5 23:30:21 10° NNE 23:35:36 84° WNW 23:36:39 59° SSW
Okean 3 3.6 23:35:41 63° E 23:35:41 63° E 23:39:53 10° NNE
ALOS 2 3.8 23:36:53 30° W 23:36:53 30° W 23:40:39 10° NNW
Cosmos 1818 4.3 23:31:57 10° NW 23:36:52 38° WSW 23:36:52 38° WSW
USA 281 4.0 23:32:05 15° ESE 23:37:13 47° NE 23:43:27 10° NNW
Cosmos 1607 4.1 23:36:39 49° S 23:38:09 63° ESE 23:44:35 10° NE
Cosmos 1048 Rocket 3.9 23:33:01 10° NNW 23:38:22 77° WSW 23:39:11 63° S
Helios 1A 4.1 23:40:37 33° E 23:41:31 37° ENE 23:45:22 10° N
Cosmos 2298 Rocket 3.9 23:41:55 62° S 23:42:47 78° ESE 23:48:06 10° NNE
Okean 1-7 3.2 23:42:48 59° W 23:42:55 59° WNW 23:47:09 10° N
PSLV R/B 3.5 23:40:32 10° NNE 23:44:58 73° ESE 23:45:08 72° ESE
Cosmos 44 Rocket 4.1 23:42:06 10° NNW 23:47:16 54° NE 23:50:23 23° ESE
COSMOS 2487 4.2 23:47:37 10° N 23:50:31 25° ENE 23:51:01 24° ENE
Resurs 1-4 Rocket 4.0 23:47:43 10° NE 23:51:23 19° E 23:53:19 16° ESE
